Location: Cudham
(51.3000°N, 0.0667°E)
Time: 07:27:44
(UTC+00:00)

Spot 4 - Pass Details

Date: 19 May 2025
Orbit: 699 x 715 km, 98.3° (Epoch: 18 June)

Event Time Altitude Azimuth Distance (km) Brightness Sun altitude
Exits shadow 22:56:47 32° 153° (SSE) 1,190 4.4 -17.5°
Maximum altitude 22:58:58 77° 73° (ENE) 728 3.8 -17.6°
Drops below altitude 10° 23:03:45 10° 348° (NNW) 2,187 7.7 -17.8°
Sets 23:06:01 0° 347° (NNW) 3,113 8.9 -17.9°
